Location: Julian California
(33.0790°N, 116.6010°W)
Time: 14:56:06
(UTC-07:00)

RESURS DK-1 - Pass Details

Date: 19 May 2017
Orbit: 557 x 563 km, 69.9° (Epoch: 24 May)

Event Time Altitude Azimuth Distance (km) Brightness Sun altitude
Rises 20:24:25 0° 179° (S) 2,718 5.5 -8.7°
Reaches altitude 10° 20:26:46 10° 168° (SSE) 1,828 4.6 -9.1°
Maximum altitude 20:30:22 30° 106° (ESE) 998 3.1 -9.7°
Drops below altitude 10° 20:34:00 10° 44° (NE) 1,842 4.9 -10.4°
Sets 20:36:23 0° 34° (NE) 2,742 5.9 -10.8°
